Weather History for Worcester, MA

Change the Weather History Date:

Sunday, November 28, 2010

  Actual Average Record
Temperature  
Mean Temperature 32 °F 36 °F  
Max Temperature 41 °F 43 °F 67 °F (1990)
Min Temperature 22 °F 29 °F 7 °F (1936)
Degree Days  
Heating Degree Days 33 29  
Month to date heating degree days 675 681  
Since 1 July heating degree days 1255 1342  
Cooling Degree Days 0 0  
Month to date cooling degree days 0 0  
Year to date cooling degree days 730 471  
Moisture  
Dew Point 18 °F    
Average Humidity 60    
Maximum Humidity 78    
Minimum Humidity 41    
Precipitation  
Precipitation 0.00 in 0.15 in 2.63 in (1993)
Month to date precipitation 4.23 4.00  
Year to date precipitation 46.22 43.97  
Snow  
Snow 0.00 in 0.20 in 2.10 in (1917)
Month to date snowfall T 2.2  
Since 1 July snowfall T 2.4  
Since 1 September snowfall T 2.4  
Snow Depth 0.00 in    
Sea Level Pressure  
Sea Level Pressure 30.26 in    
Wind  
Wind Speed 10 mph (WNW)    
Max Wind Speed 21 mph    
Max Gust Speed 26 mph    
Visibility 10 miles    
Events      
T = Trace of Precipitation, MM = Missing Value Source: NWS Daily Summary

Daily Weather History Graph

Daily Weather History Graph

Search for Another Location

Airport:

Trip Planner

Search our weather history database for the weather conditions in past years. The results will help you decide how hot, cold, wet, or windy it might be!

Date:

Astronomy

Nov. 28, 2010 Rise Set
Actual Time 6:53 AM EST 4:17 PM EST
Civil Twilight 6:22 AM EST 4:48 PM EST
Nautical Twilight 5:47 AM EST 5:23 PM EST
Astronomical Twilight 5:13 AM EST 5:56 PM EST
Moon 11:50 PM EST (11/28) 11:55 AM EST (11/28)
Length of Visible Light 10h 26m
Length of Day
9h 23m
Waning Gibbous, 52% of the Moon is Illuminated
Nov 28
Waning Gibbous
Nov 28
Last Quarter
Dec 5
New
Dec 13
First Quarter
Dec 21
Full

Hourly Weather History & Observations

Time (EST) Temp. Windchill Dew Point Humidity Pressure Visibility Wind Dir Wind Speed Gust Speed Precip Events Conditions
12:54 AM 25.0 °F 16.3 °F 10.9 °F 55% 30.04 in 10.0 mi NW 8.1 mph - N/A   Clear
1:54 AM 24.1 °F 13.7 °F 12.0 °F 60% 30.06 in 10.0 mi NW 10.4 mph - N/A   Clear
2:54 AM 24.1 °F 14.4 °F 10.0 °F 55% 30.09 in 10.0 mi WNW 9.2 mph - N/A   Clear
3:54 AM 21.9 °F 9.8 °F 10.0 °F 60% 30.09 in 10.0 mi WNW 12.7 mph - N/A   Clear
4:54 AM 23.0 °F 9.2 °F 10.0 °F 58% 30.10 in 10.0 mi WNW 17.3 mph - N/A   Clear
5:54 AM 21.9 °F 9.8 °F 10.0 °F 60% 30.16 in 10.0 mi WNW 12.7 mph 19.6 mph N/A   Clear
6:54 AM 21.9 °F 9.2 °F 9.0 °F 58% 30.19 in 10.0 mi WNW 13.8 mph - N/A   Clear
7:54 AM 24.1 °F 11.0 °F 10.0 °F 55% 30.22 in 10.0 mi WNW 16.1 mph - N/A   Clear
8:54 AM 27.0 °F 17.3 °F 12.9 °F 56% 30.25 in 10.0 mi NW 10.4 mph - N/A   Clear
9:54 AM 30.9 °F 24.3 °F 15.1 °F 52% 30.27 in 10.0 mi WNW 6.9 mph - N/A   Clear
10:54 AM 35.1 °F 26.9 °F 17.1 °F 48% 30.27 in 10.0 mi NW 11.5 mph 21.9 mph N/A   Clear
11:54 AM 37.0 °F 28.5 °F 19.0 °F 48% 30.27 in 10.0 mi WNW 13.8 mph - N/A   Clear
12:54 PM 39.0 °F 30.6 °F 19.9 °F 46% 30.27 in 10.0 mi WNW 15.0 mph - N/A   Clear
1:54 PM 39.9 °F 33.4 °F 19.9 °F 45% 30.27 in 10.0 mi NW 10.4 mph - N/A   Clear
2:54 PM 41.0 °F 33.9 °F 19.9 °F 43% 30.28 in 10.0 mi WNW 12.7 mph 18.4 mph N/A   Partly Cloudy
3:54 PM 39.0 °F 31.0 °F 21.0 °F 49% 30.30 in 10.0 mi WNW 13.8 mph - N/A   Clear
4:54 PM 36.0 °F 29.6 °F 21.9 °F 57% 30.33 in 10.0 mi WNW 8.1 mph - N/A   Scattered Clouds
5:54 PM 36.0 °F 29.6 °F 24.1 °F 62% 30.36 in 10.0 mi West 8.1 mph - N/A   Overcast
6:54 PM 35.1 °F 29.3 °F 25.0 °F 67% 30.38 in 10.0 mi West 6.9 mph - N/A   Overcast
7:54 PM 35.1 °F 31.0 °F 26.1 °F 70% 30.39 in 10.0 mi WSW 4.6 mph - N/A   Overcast
8:54 PM 33.1 °F 26.9 °F 26.1 °F 75% 30.40 in 10.0 mi West 6.9 mph - N/A   Overcast
9:54 PM 32.0 °F 26.4 °F 26.1 °F 79% 30.40 in 10.0 mi West 5.8 mph - N/A   Scattered Clouds
10:54 PM 32.0 °F 25.6 °F 24.8 °F 75% 30.37 in 10.0 mi West 6.9 mph - N/A   Partly Cloudy
11:54 PM 30.9 °F 25.2 °F 24.1 °F 76% 30.42 in 10.0 mi West 5.8 mph - N/A   Clear